Location: Arbon
(43.0005°N, 0.7472°E)
Time: 12:54:09
(UTC+00:00)

Vanguard 1 - Pass Details

Date: 28 November 2020
Orbit: 648 x 3834 km, 34.3° (Epoch: 23 January)

Event Time Altitude Azimuth Distance (km) Brightness Sun altitude
Rises 08:13:40 0° 265° (W) 4,228 12.9 9.3°
Reaches altitude 10° 08:16:04 10° 260° (W) 3,546 12.6 9.7°
Maximum altitude 08:25:13 53° 187° (S) 2,509 12.6 10.9°
Drops below altitude 10° 08:41:51 10° 118° (ESE) 6,169 15.9 13.0°
Sets 08:47:39 0° 115° (ESE) 7,551 15.9 13.8°
